CZ-3B R/B (43624 NORAD) Tracking and Keplerian Element Data

This shows tracking and keplerian element data for the satellite.

Feedback or suggestion? Click here.




ElementValue
Catalog43624
NameCZ-3B R/B
Epoch Orbit120
Epoch Day289.87556117
Epoch Year2018
RAAN142.213
Inclination54.9832
Eccentricity0.5798883
Argument of Perigee179.0748
Mean Anonmoly182.9702
Mean Motion4.4236397
Decay Rate0.00022397
L11 43624U 18072C 18289.87556117 .00022397 00000-0 78556-3 0 9992
L22 43624 54.9832 142.2130 5798883 179.0748 182.9702 4.42363970 1209

Live tracking and technical data element details for CZ-3B R/B (NORAD 43624). CZ-3B R/B can be tracked NOW for your location showing map with azimuth and elevation plus other details from your city location.

Track the satellite on the map from your city or location and see movement details for azimuth, elevation, latitude, longitude, range, height, and movement on the map or in text.







IsCatalogInMostPopularTable: catalog: 43624, numindb: 19
Update: records affected: 1



GetName: 43624 CZ-3B R/B

Hit Count: updated at: Tue, 20 Nov 2018 11:07:40 GMT